Sedalia, MO

1:09 PM CDT on October 16, 2019 (GMT -0500)
Sedalia Memorial

Weather History for KDMO - September, 2019

Change the Weather History Date:

Saturday, September 21, 2019

  Actual Average Record
Temperature  
Mean Temperature 74 °F 67 °F  
Max Temperature 78 °F 77 °F 95 °F (1937)
Min Temperature 70 °F 56 °F 36 °F (1983)
Degree Days  
Heating Degree Days 0 2  
Month to date heating degree days 0 14  
Since 1 July heating degree days 2 15  
Cooling Degree Days 9 4  
Month to date cooling degree days 209 137  
Year to date cooling degree days 1072 1422  
Growing Degree Days 24 (Base 50)    
Moisture  
Dew Point 69 °F    
Average Humidity 87    
Maximum Humidity 100    
Minimum Humidity 74    
Precipitation  
Precipitation 0.02 in 0.13 in 2.90 in (1947)
Month to date precipitation 1.18 3.00  
Year to date precipitation 34.43 30.94  
Sea Level Pressure  
Sea Level Pressure 30.01 in    
Wind  
Wind Speed 14 mph (South)    
Max Wind Speed 23 mph    
Max Gust Speed 35 mph    
Visibility 10 miles    
Events      
T = Trace of Precipitation, MM = Missing Value Source: NWS Daily Summary

Daily Weather History Graph

Daily Weather History Graph

Search for Another Location

Airport or City:

Astronomy

Sep. 21, 2019 Rise Set
Actual Time 6:59 AM CDT 7:11 PM CDT
Civil Twilight 6:32 AM CDT 7:38 PM CDT
Nautical Twilight 6:01 AM CDT 8:09 PM CDT
Astronomical Twilight 5:30 AM CDT 8:40 PM CDT
Moon 11:54 PM CDT (9/21) 2:01 PM CDT (9/21)
Length of Visible Light 13h 05m
Length of Day
12h 12m
Waning Gibbous, 54% of the Moon is Illuminated
Sep 21
Waning Gibbous
Sep 21
Last Quarter
Sep 28
New
Oct 5
First Quarter
Oct 13
Full

Hourly Weather History & Observations

Time (CDT) Temp. Dew Point Humidity Pressure Visibility Wind Dir Wind Speed Gust Speed Precip Events Conditions
12:14 AM 71.1 °F 68.0 °F 90% 30.04 in 10.0 mi SSE 13.8 mph 23.0 mph N/A   Overcast
12:53 AM 71.1 °F 68.0 °F 90% 30.03 in 10.0 mi South 13.8 mph - N/A   Overcast
1:41 AM 71.1 °F 68.0 °F 90% 30.04 in 10.0 mi South 11.5 mph - N/A   Mostly Cloudy
1:53 AM 70.0 °F 68.0 °F 93% 30.02 in 10.0 mi South 10.4 mph - N/A   Mostly Cloudy
2:53 AM 71.1 °F 68.0 °F 90% 30.01 in 10.0 mi South 10.4 mph - N/A   Overcast
3:53 AM 71.1 °F 68.0 °F 90% 30.01 in 10.0 mi South 15.0 mph 20.7 mph N/A   Overcast
4:16 AM 71.1 °F 68.0 °F 90% 30.04 in 10.0 mi South 12.7 mph - N/A   Overcast
4:53 AM 71.1 °F 68.0 °F 90% 30.02 in 10.0 mi South 13.8 mph - N/A   Mostly Cloudy
5:53 AM 71.1 °F 68.0 °F 90% 30.02 in 10.0 mi South 12.7 mph - N/A   Overcast
6:16 AM 72.0 °F 69.1 °F 91% 30.04 in 10.0 mi South 13.8 mph - N/A   Overcast
6:49 AM 71.6 °F 69.8 °F 94% 30.04 in 10.0 mi South 15.0 mph 20.7 mph N/A   Overcast
6:53 AM 72.0 °F 69.1 °F 91% 30.02 in 10.0 mi South 15.0 mph 20.7 mph N/A   Overcast
7:53 AM 73.0 °F 69.1 °F 87% 30.03 in 10.0 mi South 17.3 mph 24.2 mph N/A   Partly Cloudy
8:39 AM 73.0 °F 69.1 °F 87% 30.05 in 10.0 mi South 12.7 mph 23.0 mph N/A   Mostly Cloudy
9:53 AM 75.0 °F 69.1 °F 82% 30.04 in 10.0 mi South 17.3 mph 25.3 mph N/A   Overcast
10:53 AM 75.9 °F 70.0 °F 82% 30.03 in 10.0 mi SSW 17.3 mph 25.3 mph N/A   Overcast
11:53 AM 77.0 °F 70.0 °F 79% 30.02 in 10.0 mi SSW 21.9 mph 31.1 mph N/A   Overcast
12:53 PM 78.1 °F 70.0 °F 76% 30.02 in 10.0 mi SSW 17.3 mph 27.6 mph N/A   Overcast
1:24 PM 78.1 °F 70.0 °F 76% 30.04 in 10.0 mi SSW 17.3 mph 31.1 mph N/A   Overcast
1:53 PM 77.0 °F 70.0 °F 79% 30.00 in 10.0 mi SSW 20.7 mph 28.8 mph N/A   Mostly Cloudy
2:53 PM 75.9 °F 69.1 °F 79% 30.00 in 10.0 mi South 13.8 mph - N/A   Scattered Clouds
3:53 PM 73.0 °F 71.1 °F 93% 30.01 in 10.0 mi SSW 13.8 mph 23.0 mph 0.01 in   Mostly Cloudy
4:53 PM 72.0 °F 71.1 °F 97% 29.99 in 10.0 mi SSE 10.4 mph - 0.01 in   Mostly Cloudy
5:53 PM 72.0 °F 71.1 °F 97% 29.99 in 10.0 mi South 10.4 mph - N/A   Partly Cloudy
6:53 PM 71.1 °F 71.1 °F 100% 29.97 in 10.0 mi South 10.4 mph - N/A   Clear
7:53 PM 70.0 °F 70.0 °F 100% 29.96 in 10.0 mi South 11.5 mph - N/A   Clear
8:53 PM 70.0 °F 69.1 °F 97% 29.96 in 10.0 mi South 6.9 mph - N/A   Partly Cloudy
9:53 PM 73.0 °F 69.1 °F 87% 29.94 in 10.0 mi South 12.7 mph - N/A   Mostly Cloudy
10:53 PM 72.0 °F 69.1 °F 91% 29.96 in 10.0 mi South 9.2 mph - N/A   Clear
11:53 PM 73.0 °F 68.0 °F 84% 29.97 in 10.0 mi South 11.5 mph - N/A   Scattered Clouds